This is the latest recevied weather packets stored in our database for station/object KE0FIN. If no packets are shown the sender has not sent any weather packets the latest 10 day(s).
| Time | Temp. | Humidity | Pressure | Rain* | Wind** | Luminosity | Snow |
|---|---|---|---|---|---|---|---|
| 1777478695 | 12.22° C | 68% | 1073.3 hPa | 0 mm | - | 132 W/m² | - |
| 1777478392 | 12.22° C | 69% | 1073.3 hPa | 0 mm | - | 163 W/m² | - |
| 1777478089 | 11.67° C | 70% | 1073.2 hPa | 0 mm | - | 112 W/m² | - |
| 1777477785 | 11.67° C | 69% | 1073.5 hPa | 0 mm | - | 112 W/m² | - |
| 1777477481 | 11.67° C | 69% | 1073.4 hPa | 0 mm | - | 116 W/m² | - |
| 1777477178 | 11.67° C | 68% | 1073.4 hPa | 0 mm | - | 141 W/m² | - |
| 1777476874 | 11.11° C | 69% | 1073.5 hPa | 0 mm | - | 207 W/m² | - |
| 1777476572 | 11.67° C | 70% | 1073.4 hPa | 0 mm | - | 144 W/m² | - |
| 1777476268 | 11.11° C | 69% | 1073.4 hPa | 0 mm | - | 127 W/m² | - |
| 1777475963 | 11.67° C | 69% | 1073.4 hPa | 0 mm | - | 129 W/m² | - |
| 1777475660 | 11.11° C | 70% | 1073.2 hPa | 0 mm | - | 212 W/m² | - |
| 1777475356 | 11.11° C | 70% | 1073.2 hPa | 0 mm | - | 242 W/m² | - |
| 1777475051 | 11.11° C | 70% | 1073.2 hPa | 0 mm | - | 250 W/m² | - |
| 1777474748 | 11.11° C | 69% | 1073.3 hPa | 0 mm | - | 110 W/m² | - |
| 1777474444 | 11.11° C | 71% | 1073.3 hPa | 0 mm | - | 281 W/m² | - |
| 1777474141 | 11.11° C | 70% | 1073.2 hPa | 0 mm | - | 302 W/m² | - |
| 1777473839 | 11.11° C | 71% | 1073.1 hPa | 0 mm | - | 270 W/m² | - |
| 1777473536 | 10.56° C | 74% | 1073 hPa | 0 mm | - | 90 W/m² | - |
| 1777473231 | 10.56° C | 74% | 1073.3 hPa | 0 mm | - | 276 W/m² | - |
| 1777472928 | 10.56° C | 75% | 1073.3 hPa | 0 mm | - | 248 W/m² | - |
| 1777472624 | 10° C | 76% | 1073.2 hPa | 0 mm | - | 195 W/m² | - |
| 1777472321 | 10° C | 75% | 1073.1 hPa | 0 mm | - | 178 W/m² | - |
| 1777472019 | 9.44° C | 78% | 1073.2 hPa | 0 mm | - | 150 W/m² | - |
| 1777471714 | 8.89° C | 79% | 1073 hPa | 0 mm | - | 143 W/m² | - |
| 1777471411 | 8.89° C | 79% | 1073.1 hPa | 0 mm | - | 181 W/m² | - |
* Rain latest hour (hover to see other rain measurements)
** Current wind speed in m/s (hover to see current wind gust speed)